Regional Weather Roundup
Issued by NWS Sterling, VA

Home | Current Version | Previous Version | Graphics & Text | Print | Product List | Glossary On
Versions: 1 2 3 4 5 6 7 8 9 10 11 12 13 14 15 16 17 18 19 20 21 22 23 24 25 26 27 28 29 30 31 32 33 34 35 36 37 38 39 40 41 42 43 44 45 46 47 48 49 50
000
ASUS41 KLWX 052310
RWRLWX

REGIONAL WEATHER ROUNDUP
NATIONAL WEATHER SERVICE BALTIMORE MD/WASHINGTON DC
600 PM EST MON DEC 05 2016

Note: "FAIR" indicates few or no clouds below 12,000 feet
with no significant weather and/or obstructions to visibility.
 TC=TEMPERATURE CELSIUS

 * =Non NWS site. Station does not report precipitation (e.g. rain,
    snow, etc.), thunder, or fog.

DCZ001-MDZ009-015-VAZ040>042-051-053>054-060000-
WASHINGTON METRO

CITY           SKY/WX    TMP DP  RH WIND       PRES   REMARKS
WASHINGTON NAT MOCLDY    51  36  56 N6        30.06R
DULLES         MOCLDY    49  33  54 N7        30.06R
ANDREWS AFB    MOCLDY    45  34  65 N3        30.04R
FT BELVOIR     PTCLDY    47  36  65 CALM      30.06R
QUANTICO       PTCLDY    47  40  76 NW5       30.07R
COLLEGE PARK*  PTCLDY    43  36  75 CALM      30.06R
LEESBURG*      PTCLDY    46  36  66 N6        30.07R
GAITHERSBURG*  CLOUDY    43  30  61 CALM      30.10R

$$

MDZ006>007-011-014-060000-
BALTIMORE METRO

CITY           SKY/WX    TMP DP  RH WIND       PRES   REMARKS
BWI AIRPORT    MOCLDY    44  37  76 CALM      30.05S
MD SCIENCE CTR   N/A     52  34  50 MISG      30.06R
MARTIN STATE   CLEAR     45  41  87 CALM      30.07R
ANNAPOLIS      PTCLDY    48  40  73 CALM      30.06R
FORT MEADE*    PTCLDY    41  36  81 CALM      30.08S

$$

MDZ012-015-019>023-060000-
MARYLAND EASTERN SHORE

CITY           SKY/WX    TMP DP  RH WIND       PRES   REMARKS
OCEAN CITY     CLEAR     42  40  92 CALM      30.05R
SALISBURY      CLEAR     40  39  97 CALM      30.04R
BAY BRIDGE AP* PTCLDY    45  37  76 CALM      30.06R
CAMBRIDGE*     PTCLDY    43  37  81 N5        30.05R
EASTON*        MOCLDY    48  37  66 CALM      30.09R

$$

MDZ017>025-060000-
SOUTHERN MARYLAND

CITY           SKY/WX    TMP DP  RH WIND       PRES   REMARKS
PATUXENT RIVER MOCLDY    43  40  89 SW3       30.05R
ST INIGOES     CLEAR     42  41  96 CALM      30.05R
LEONARDTOWN*   CLEAR     41  39  93 CALM      30.07S

$$

MDZ003>005-060000-
NORTH CENTRAL MARYLAND

CITY           SKY/WX    TMP DP  RH WIND       PRES   REMARKS
FREDERICK*     CLEAR     41  36  81 CALM      30.09R
HAGERSTOWN APT CLOUDY    44  30  57 N5        30.08R
WESTMINSTER*   CLOUDY    43  30  61 N5        30.06R

$$

MDZ501>502-060000-
WESTERN MARYLAND

CITY           SKY/WX    TMP DP  RH WIND       PRES   REMARKS
OAKLAND*       CLOUDY    32  30  93 N3        30.02F
CUMBERLAND*    NOT AVBL

$$

VAZ025>031-060000-
SHENANDOAH VALLEY

CITY           SKY/WX    TMP DP  RH WIND       PRES   REMARKS
WINCHESTER*    CLOUDY    45  32  61 N3        30.06R
FRONT ROYAL*   FAIR      46  32  57 CALM      30.05R
LURAY*         FAIR      48  32  53 N6        30.04R
NEW MARKET*    FAIR      43  33  65 CALM      30.04R
STAUNTON*      CLOUDY    47  32  56 NE5       30.05R
WAYNESBORO*    FAIR      47  32  55 CALM      30.02R

$$

WVZ021-048>050-054>055-060000-
EASTERN WEST VIRGINIA PANHANDLE

CITY           SKY/WX    TMP DP  RH WIND       PRES   REMARKS
MARTINSBURG    CLOUDY    46  30  53 N6        30.07R
PETERSBURG*    CLOUDY    47  33  57 CALM      30.05R

$$

VAZ036>039-050-060000-
CENTRAL FOOTHILLS

CITY           SKY/WX    TMP DP  RH WIND       PRES   REMARKS
CHARLOTTESVILL PTCLDY    51  41  68 NE5       30.03R
CULPEPER*      MOCLDY    43  40  89 CALM      30.07R
ORANGE*          N/A     43  43 100 CALM      30.07R
GORDONSVILLE*  FAIR      44  42  94 CALM      30.04R
WARRENTON*     FAIR      39  34  81 CALM      30.05R

$$

VAZ055>057-060000-
NORTH AND CENTRAL PIEDMONT

CITY           SKY/WX    TMP DP  RH WIND       PRES   REMARKS
FREDERICKSBRG* PTCLDY    44  42  93 CALM      30.05R
STAFFORD*      PTCLDY    42  39  91 CALM      30.10R

$$

NCZ024-NYZ072-PAZ021-071-VAZ022-071-060000-
OTHER REGIONAL OBSERVATIONS

CITY           SKY/WX    TMP DP  RH WIND       PRES   REMARKS
NEW YORK CITY  PTCLDY    46  33  60 NW7       30.04S
PHILADELPHIA   CLOUDY    48  33  56 NW6       30.06R
PITTSBURGH     CLOUDY    40  29  64 CALM      30.09R
ROANOKE        CLOUDY    51  36  56 NE5       30.04R
RICHMOND       CLOUDY    44  40  85 NE5       30.04S
RALEIGH        CLOUDY    53  42  66 NE3       30.03R

$$

ANZ530>537-060000-
MARINE OBSERVATIONS

STATION/POSITION TIME  TEMP    WIND        PRES
                       AIR SEA DIR/SP/G
                 (UTC) (F)     (DEG/KT/KT) (MB)
THOMAS PT LIGHT  2300   50 49   80/  3/  4   N/A
BALT KEY BRIDGE  2242   51     300/  4/  5 1017.7R
COVE POINT       2242   47     330/  1/  2 1018.0R
LEWISETTA        2242   48 49  120/  4/  4 1017.2S
SOLOMONS ISLAND  2242   48 51  180/  2/  2   N/A
PINEY POINT      2236           80/  2/  3   N/A

$$




USA.gov is the U.S. government's official web portal to all federal, state and local government web resources and services.